Regional Weather Roundup
Issued by NWS Huntsville, AL

Home | Current Version | Previous Version | Text Only | Print | Product List | Glossary On
Versions: 1 2 3 4 5 6 7 8 9 10 11 12 13 14 15 16 17 18 19 20 21 22 23 24 25 26 27 28 29 30 31 32 33 34 35 36 37 38 39 40 41 42 43 44 45 46 47 48 49 50
000
ASUS44 KHUN 241810
RWRHUN

WEATHER ROUNDUP FOR THE TENNESSEE VALLEY
NATIONAL WEATHER SERVICE HUNTSVILLE AL
100 PM CDT TUE APR 24 2018

ALZ001>004-241900-
NORTHWEST ALABAMA

CITY           SKY/WX    TMP DP  RH WIND       PRES   REMARKS
SHOALS AIRPORT CLOUDY    63  53  70 NW12      29.96F
6HR MIN TEMP:  57; 6HR MAX TEMP:  64;

$$

ALZ005>007-016-241900-
NORTH CENTRAL ALABAMA

CITY           SKY/WX    TMP DP  RH WIND       PRES   REMARKS
DECATUR AP     PTSUNNY   65  57  75 W13       29.93F
6HR MIN TEMP:  55; 6HR MAX TEMP:  65;

HUNTSVILLE AP  PTSUNNY   66  58  75 W8G17     29.92F
6HR MIN TEMP:  57; 6HR MAX TEMP:  66;

MERIDIANVILLE  CLOUDY    65  56  71 NW13      29.92F
REDSTONE ARSN  CLOUDY    65  55  69 W9        29.91F
VINEMONT AP    CLOUDY    59  54  83 NW7       29.96S
$$

ALZ008>010-241900-
NORTHEAST ALABAMA

CITY           SKY/WX    TMP DP  RH WIND       PRES   REMARKS
ALBERTVILLE    CLOUDY    61  57  88 NW8       29.92S
FORT PAYNE     CLOUDY    64  52  63 NW10      29.88F
SCOTTSBORO AP  FAIR      68  55  64 W9G16     29.90F
$$

TNZ076-096-097-241900-
SOUTHEASTERN MIDDLE TENNESSEE

CITY           SKY/WX    TMP DP  RH WIND       PRES   REMARKS
TULLAHOMA      CLOUDY    61  55  82 NW7       29.91S
WINCHESTER     CLOUDY    63  54  72 VRB5      29.90F
$$

...SURROUNDING SITES...

CITY           SKY/WX    TMP DP  RH WIND       PRES   REMARKS
ATLANTA        LGT RAIN  62  59  90 W15       29.88S
ANNISTON       CLOUDY    64  54  69 W8        29.92S
BIRMINGHAM     CLOUDY    65  55  70 W7        29.95F
CHATTANOOGA    PTSUNNY   69  52  54 W10       29.87F
CORINTH        CLOUDY    63  55  77 NW8       29.97S
DALTON         CLOUDY    66  55  68 CALM      29.88F
GADSDEN        PTSUNNY   65  57  75 W12       29.92F
GOLDEN TRNGL   CLOUDY    63  55  77 NW9       29.99S
HALEYVILLE     CLOUDY    62  56  80 N10       29.97F
JACKSON TN     CLOUDY    63  57  81 NW9       29.97F
MEMPHIS        CLOUDY    63  56  78 NW13      30.00F
NASHVILLE      PTSUNNY   65  55  70 W9        29.92S
OXFORD MS      CLOUDY    63  54  72 NW12      30.01S
ROME           CLOUDY    66  57  72 W9        29.87F
SAVANNAH       CLOUDY    61  55  82 NW7G13    29.96F
SELMER         CLOUDY    61  54  77 VRB3G13   29.96F
TUPELO         CLOUDY    65  53  65 W8        29.97F
TUSCALOOSA     CLOUDY    62  58  86 W7        29.96F
$$

...GULF COAST WEATHER...

CITY           SKY/WX    TMP DP  RH WIND       PRES   REMARKS
GULFPORT       PTSUNNY   78  56  46 W15G24    29.96F
PASCAGOULA     PTSUNNY   75  60  59 SW9       29.97F
MOBILE         PTSUNNY   75  55  49 W10G20    29.97F
GULF SHORES    FAIR      73  57  58 W12G21    29.97F
PENSACOLA      PTSUNNY   74  58  57 SW17      29.96
DESTIN         FAIR      73  57  57 SW10G20   29.96F
PANAMA CITY    FAIR      70  58  66 W14       29.97F
APPALACHICOLA  FAIR      75  55  49 NW18      29.96F
$$




USA.gov is the U.S. government's official web portal to all federal, state and local government web resources and services.